Dades meteomassalio
Diari Summary for Abril 25, 2017 Units:  Metric    English   Both
« Previous Day
Next Day »
Diari Semanal Mensual Anual Personalitzat
  Maxima: Minima: Mijana:
Temperatura: 23.3 °C 10.3 °C 16.6 °C
Rosada: 16.0 °C 6.1 °C 10.8 °C
Humitat: 92 % 42 % 71 %
Velocitat del vent: 22.2 km/h 0.0 km/h 4.3 km/h
Racha vent: 22.2 km/h - -
Vent:- - ESE
Pressio: 1012.4 hPa 1004.6 hPa -
Pluja: 8.9 mm    
Historical Graphs
 
 
Tabular Data for Abril 25, 2017
Time Temperature Dew Point Pressure Wind Wind Speed Wind Gust Humidity Rainfall Rate (Hourly) solar Conditions
00:04 16.0 °C 6.7 °C 1012.4 hPa Calm     54 % 0.0 mm 0.0 W/m2 CLR
00:09 15.8 °C 6.8 °C 1012.4 hPa Calm     55 % 0.0 mm 0.0 W/m2 CLR
00:14 15.8 °C 7.0 °C 1012.4 hPa Calm     56 % 0.0 mm 0.0 W/m2 CLR
00:19 15.7 °C 7.2 °C 1012.4 hPa Calm     57 % 0.0 mm 0.0 W/m2 CLR
00:25 15.6 °C 6.8 °C 1012.4 hPa Calm     56 % 0.0 mm 0.0 W/m2 CLR
00:30 15.7 °C 7.2 °C 1012.1 hPa Calm     57 % 0.0 mm 0.0 W/m2 CLR
00:35 15.6 °C 7.3 °C 1012.4 hPa NE 5.6 km/h 5.6 km/h 58 % 0.0 mm 0.0 W/m2 CLR
00:40 15.5 °C 7.5 °C 1012.1 hPa ENE 5.6 km/h 5.6 km/h 59 % 0.0 mm 0.0 W/m2 CLR
00:45 15.5 °C 7.3 °C 1012.1 hPa Calm     58 % 0.0 mm 0.0 W/m2 CLR
00:50 15.5 °C 7.8 °C 1012.1 hPa Calm     60 % 0.0 mm 0.0 W/m2 CLR
00:55 15.4 °C 7.7 °C 1012.1 hPa ENE 3.7 km/h 3.7 km/h 60 % 0.0 mm 0.0 W/m2 CLR
01:00 15.4 °C 7.7 °C 1012.1 hPa Calm     60 % 0.0 mm 0.0 W/m2 CLR
01:05 15.5 °C 7.8 °C 1012.1 hPa Calm     60 % 0.0 mm 0.0 W/m2 CLR
01:10 15.5 °C 8.0 °C 1012.1 hPa Calm     61 % 0.0 mm 0.0 W/m2 CLR
01:15 15.4 °C 8.2 °C 1012.1 hPa Calm     62 % 0.0 mm 0.0 W/m2 CLR
01:20 15.4 °C 8.2 °C 1012.1 hPa Calm     62 % 0.0 mm 0.0 W/m2 CLR
01:25 15.3 °C 8.3 °C 1012.1 hPa Calm     63 % 0.0 mm 0.0 W/m2 CLR
01:30 15.2 °C 8.7 °C 1012.1 hPa Calm     65 % 0.0 mm 0.0 W/m2 CLR
01:35 15.1 °C 8.8 °C 1012.4 hPa Calm     66 % 0.0 mm 0.0 W/m2 CLR
01:40 15.1 °C 8.9 °C 1012.1 hPa Calm     67 % 0.0 mm 0.0 W/m2 CLR
01:45 14.9 °C 8.9 °C 1012.1 hPa Calm     67 % 0.0 mm 0.0 W/m2 CLR
01:50 14.8 °C 9.0 °C 1012.1 hPa Calm     68 % 0.0 mm 0.0 W/m2 CLR
01:55 14.7 °C 9.1 °C 1012.1 hPa Calm     69 % 0.0 mm 0.0 W/m2 CLR
02:00 14.6 °C 9.2 °C 1012.1 hPa Calm     70 % 0.0 mm 0.0 W/m2 CLR
02:05 14.5 °C 9.1 °C 1012.1 hPa ENE 7.4 km/h 7.4 km/h 70 % 0.0 mm 0.0 W/m2 CLR
02:10 14.4 °C 9.2 °C 1011.7 hPa Calm     71 % 0.0 mm 0.0 W/m2 CLR
02:15 14.4 °C 9.2 °C 1011.7 hPa NNE 1.9 km/h 1.9 km/h 71 % 0.0 mm 0.0 W/m2 CLR
02:20 14.4 °C 9.2 °C 1011.7 hPa Calm     71 % 0.0 mm 0.0 W/m2 CLR
02:25 14.4 °C 9.0 °C 1011.7 hPa Calm     70 % 0.0 mm 0.0 W/m2 CLR
02:30 14.4 °C 9.0 °C 1011.7 hPa North 5.6 km/h 5.6 km/h 70 % 0.0 mm 0.0 W/m2 CLR
02:35 14.3 °C 9.1 °C 1011.7 hPa Calm     71 % 0.0 mm 0.0 W/m2 CLR
02:40 14.2 °C 9.1 °C 1011.7 hPa Calm     71 % 0.0 mm 0.0 W/m2 CLR
02:45 14.3 °C 8.9 °C 1011.4 hPa Calm     70 % 0.0 mm 0.0 W/m2 CLR
02:50 14.2 °C 8.8 °C 1011.4 hPa Calm     70 % 0.0 mm 0.0 W/m2 CLR
02:55 14.2 °C 8.8 °C 1011.4 hPa Calm     70 % 0.0 mm 0.0 W/m2 CLR
03:00 14.2 °C 8.8 °C 1011.4 hPa Calm     70 % 0.0 mm 0.0 W/m2 CLR
03:05 14.2 °C 8.8 °C 1011.4 hPa Calm     70 % 0.0 mm 0.0 W/m2 CLR
03:10 14.2 °C 8.8 °C 1011.1 hPa Calm     70 % 0.0 mm 0.0 W/m2 CLR
03:15 14.1 °C 8.7 °C 1011.1 hPa Calm     70 % 0.0 mm 0.0 W/m2 CLR
03:20 14.1 °C 8.7 °C 1011.1 hPa Calm     70 % 0.0 mm 0.0 W/m2 CLR
03:25 14.0 °C 8.6 °C 1011.1 hPa Calm     70 % 0.0 mm 0.0 W/m2 CLR
03:30 13.9 °C 8.5 °C 1011.1 hPa Calm     70 % 0.0 mm 0.0 W/m2 CLR
03:35 14.0 °C 8.4 °C 1011.1 hPa Calm     69 % 0.0 mm 0.0 W/m2 CLR
03:40 14.2 °C 8.3 °C 1011.1 hPa Calm     68 % 0.0 mm 0.0 W/m2 CLR
03:45 14.2 °C 8.2 °C 1011.1 hPa Calm     67 % 0.0 mm 0.0 W/m2 CLR
03:50 14.3 °C 8.3 °C 1010.7 hPa Calm     67 % 0.0 mm 0.0 W/m2 CLR
03:55 14.3 °C 8.4 °C 1010.7 hPa Calm     68 % 0.0 mm 0.0 W/m2 CLR
04:00 14.2 °C 8.4 °C 1010.7 hPa Calm     68 % 0.0 mm 0.0 W/m2 CLR
04:05 14.2 °C 8.3 °C 1010.7 hPa Calm     68 % 0.0 mm 0.0 W/m2 CLR
04:10 14.1 °C 8.3 °C 1010.7 hPa Calm     68 % 0.0 mm 0.0 W/m2 CLR
04:15 14.1 °C 8.2 °C 1010.7 hPa Calm     68 % 0.0 mm 0.0 W/m2 CLR
04:20 14.0 °C 8.2 °C 1010.7 hPa Calm     68 % 0.0 mm 0.0 W/m2 CLR
04:25 13.9 °C 8.1 °C 1010.7 hPa Calm     68 % 0.0 mm 0.0 W/m2 CLR
04:30 13.8 °C 8.0 °C 1010.7 hPa Calm     68 % 0.0 mm 0.0 W/m2 CLR
04:35 13.8 °C 8.2 °C 1010.4 hPa Calm     69 % 0.0 mm 0.0 W/m2 CLR
04:40 13.7 °C 8.1 °C 1010.4 hPa Calm     69 % 0.0 mm 0.0 W/m2 CLR
04:45 13.6 °C 8.0 °C 1010.4 hPa Calm     69 % 0.0 mm 0.0 W/m2 CLR
04:50 13.6 °C 8.0 °C 1010.4 hPa Calm     69 % 0.0 mm 0.0 W/m2 CLR
04:55 13.5 °C 8.1 °C 1010.4 hPa Calm     70 % 0.0 mm 0.0 W/m2 CLR
05:00 13.5 °C 8.1 °C 1010.4 hPa Calm     70 % 0.0 mm 0.0 W/m2 CLR
05:05 13.4 °C 8.0 °C 1010.4 hPa Calm     70 % 0.0 mm 0.0 W/m2 CLR
05:10 13.3 °C 7.9 °C 1010.4 hPa Calm     70 % 0.0 mm 0.0 W/m2 CLR
05:11 13.3 °C 7.9 °C 1010.4 hPa Calm     70 % 0.0 mm 0.0 W/m2 CLR
05:16 13.2 °C 8.0 °C 1010.0 hPa Calm     71 % 0.0 mm 0.0 W/m2 CLR
05:21 13.1 °C 8.2 °C 1010.0 hPa Calm     72 % 0.0 mm 0.0 W/m2 CLR
05:26 13.0 °C 7.9 °C 1010.0 hPa Calm     71 % 0.0 mm 0.0 W/m2 CLR
05:28 12.9 °C 7.8 °C 1010.0 hPa Calm     71 % 0.0 mm 0.0 W/m2 CLR
05:33 12.8 °C 7.8 °C 1010.0 hPa Calm     72 % 0.0 mm 0.0 W/m2 CLR
05:38 12.6 °C 7.7 °C 1010.0 hPa Calm     72 % 0.0 mm 0.0 W/m2 CLR
05:43 12.4 °C 7.7 °C 1010.0 hPa Calm     73 % 0.0 mm 0.0 W/m2 CLR
05:48 12.3 °C 7.8 °C 1010.0 hPa Calm     74 % 0.0 mm 0.0 W/m2 CLR
05:53 12.3 °C 7.8 °C 1010.0 hPa Calm     74 % 0.0 mm 0.0 W/m2 CLR
05:58 12.1 °C 7.3 °C 1010.0 hPa Calm     73 % 0.0 mm 0.0 W/m2 CLR
06:03 11.8 °C 7.3 °C 1010.0 hPa Calm     74 % 0.0 mm 0.0 W/m2 CLR
06:08 11.7 °C 7.2 °C 1010.0 hPa Calm     74 % 0.0 mm 0.0 W/m2 CLR
06:13 11.5 °C 7.0 °C 1010.0 hPa Calm     74 % 0.0 mm 0.0 W/m2 CLR
06:18 11.3 °C 7.3 °C 1010.0 hPa Calm     76 % 0.0 mm 0.0 W/m2 CLR
06:23 11.2 °C 7.1 °C 1010.0 hPa Calm     76 % 0.0 mm 0.0 W/m2 CLR
06:28 11.1 °C 7.2 °C 1010.0 hPa Calm     77 % 0.0 mm 0.0 W/m2 CLR
06:33 10.9 °C 6.9 °C 1010.0 hPa Calm     76 % 0.0 mm 0.0 W/m2 CLR
06:38 10.7 °C 6.8 °C 1010.0 hPa Calm     77 % 0.0 mm 0.0 W/m2 CLR
06:44 10.6 °C 6.7 °C 1010.0 hPa Calm     77 % 0.0 mm 0.0 W/m2 CLR
06:49 10.4 °C 6.6 °C 1010.4 hPa Calm     77 % 0.0 mm 0.0 W/m2 CLR
06:54 10.5 °C 6.8 °C 1010.4 hPa Calm     78 % 0.0 mm 0.0 W/m2 CLR
06:59 10.5 °C 6.8 °C 1010.4 hPa Calm     78 % 0.0 mm 0.0 W/m2 CLR
07:04 10.5 °C 6.6 °C 1010.4 hPa Calm     77 % 0.0 mm 0.0 W/m2 OVC
07:09 10.3 °C 6.5 °C 1010.4 hPa Calm     77 % 0.0 mm 5.0 W/m2 OVC
07:14 10.3 °C 6.6 °C 1010.4 hPa Calm     78 % 0.0 mm 7.0 W/m2 BKN
07:19 10.3 °C 6.7 °C 1010.4 hPa Calm     78 % 0.0 mm 11.0 W/m2 BKN
07:24 10.3 °C 6.5 °C 1010.7 hPa Calm     77 % 0.0 mm 18.0 W/m2 BKN
07:29 10.4 °C 6.8 °C 1010.4 hPa Calm     78 % 0.0 mm 25.0 W/m2 BKN
07:34 10.4 °C 6.6 °C 1010.7 hPa Calm     77 % 0.0 mm 28.0 W/m2 BKN
07:39 10.3 °C 6.2 °C 1010.7 hPa Calm     76 % 0.0 mm 35.0 W/m2 BKN
07:44 10.3 °C 6.2 °C 1010.7 hPa Calm     76 % 0.0 mm 47.0 W/m2 SCT
07:49 10.3 °C 6.2 °C 1010.7 hPa SW 5.6 km/h 5.6 km/h 76 % 0.0 mm 60.0 W/m2 SCT
07:54 10.3 °C 6.3 °C 1010.7 hPa Calm     76 % 0.0 mm 46.0 W/m2 SCT
07:59 10.4 °C 6.4 °C 1010.4 hPa Calm     76 % 0.0 mm 39.0 W/m2 BKN
08:04 10.6 °C 6.3 °C 1010.7 hPa Calm     75 % 0.0 mm 40.0 W/m2 BKN
08:09 10.6 °C 6.3 °C 1010.4 hPa Calm     75 % 0.0 mm 44.0 W/m2 BKN
08:14 10.7 °C 6.4 °C 1010.4 hPa Calm     75 % 0.0 mm 62.0 W/m2 SCT
08:19 10.8 °C 6.6 °C 1010.7 hPa Calm     75 % 0.0 mm 70.0 W/m2 SCT
08:24 11.1 °C 6.8 °C 1010.7 hPa Calm     75 % 0.0 mm 141.0 W/m2 FEW
08:29 11.3 °C 6.9 °C 1010.4 hPa Calm     74 % 0.0 mm 160.0 W/m2 CLR
08:34 11.8 °C 7.3 °C 1010.4 hPa Calm     74 % 0.0 mm 98.0 W/m2 CLR
08:39 12.2 °C 7.1 °C 1010.4 hPa Calm     71 % 0.0 mm 195.0 W/m2 CLR
08:44 12.6 °C 7.2 °C 1010.4 hPa Calm     70 % 0.0 mm 199.0 W/m2 CLR
08:49 12.9 °C 7.1 °C 1010.4 hPa Calm     68 % 0.0 mm 213.0 W/m2 CLR
08:54 13.2 °C 7.4 °C 1010.4 hPa Calm     68 % 0.0 mm 232.0 W/m2 CLR
08:59 13.6 °C 7.6 °C 1010.4 hPa Calm     67 % 0.0 mm 250.0 W/m2 CLR
09:04 13.8 °C 7.6 °C 1010.4 hPa Calm     66 % 0.0 mm 269.0 W/m2 CLR
09:09 14.2 °C 7.9 °C 1010.4 hPa Calm     66 % 0.0 mm 301.0 W/m2 CLR
09:14 14.6 °C 8.1 °C 1010.4 hPa Calm     65 % 0.0 mm 225.0 W/m2 CLR
09:19 15.1 °C 7.9 °C 1010.0 hPa Calm     62 % 0.0 mm 151.0 W/m2 CLR
09:24 15.5 °C 8.0 °C 1010.0 hPa Calm     61 % 0.0 mm 285.0 W/m2 CLR
09:29 15.8 °C 8.3 °C 1010.0 hPa Calm     61 % 0.0 mm 120.0 W/m2 CLR
09:34 15.8 °C 8.1 °C 1009.7 hPa Calm     60 % 0.0 mm 76.0 W/m2 CLR
09:39 15.7 °C 7.7 °C 1009.7 hPa ENE 5.6 km/h 5.6 km/h 59 % 0.0 mm 111.0 W/m2 CLR
09:44 15.5 °C 7.3 °C 1009.7 hPa East 5.6 km/h 5.6 km/h 58 % 0.0 mm 137.0 W/m2 CLR
09:49 15.7 °C 6.9 °C 1009.7 hPa SE 5.6 km/h 5.6 km/h 56 % 0.0 mm 350.0 W/m2 CLR
09:54 15.9 °C 7.2 °C 1009.7 hPa SSE 5.6 km/h 5.6 km/h 56 % 0.0 mm 422.0 W/m2 CLR
09:59 16.5 °C 7.2 °C 1009.7 hPa South 5.6 km/h   54 % 0.0 mm 462.0 W/m2 CLR
10:04 16.8 °C 6.6 °C 1009.4 hPa Calm     51 % 0.0 mm 327.0 W/m2 CLR
10:09 17.2 °C 6.7 °C 1009.4 hPa Calm     50 % 0.0 mm 278.0 W/m2 CLR
10:14 17.3 °C 6.5 °C 1009.4 hPa Calm     49 % 0.0 mm 260.0 W/m2 CLR
10:19 17.5 °C 6.1 °C 1009.4 hPa East 5.6 km/h 5.6 km/h 47 % 0.0 mm 271.0 W/m2 CLR
10:24 17.7 °C 6.6 °C 1009.4 hPa Calm     48 % 0.0 mm 281.0 W/m2 CLR
10:29 17.9 °C 6.7 °C 1009.4 hPa Calm     48 % 0.0 mm 229.0 W/m2 CLR
10:34 18.1 °C 7.5 °C 1009.4 hPa Calm     50 % 0.0 mm 223.0 W/m2 CLR
10:39 18.3 °C 7.4 °C 1009.4 hPa Calm     49 % 0.0 mm 283.0 W/m2 CLR
10:44 18.4 °C 7.2 °C 1009.4 hPa Calm     48 % 0.0 mm 304.0 W/m2 CLR
10:49 18.5 °C 6.7 °C 1009.4 hPa Calm     46 % 0.0 mm 267.0 W/m2 CLR
10:54 18.7 °C 6.8 °C 1009.4 hPa North 3.7 km/h 3.7 km/h 46 % 0.0 mm 246.0 W/m2 CLR
10:59 18.8 °C 6.3 °C 1009.4 hPa North 5.6 km/h 5.6 km/h 44 % 0.0 mm 188.0 W/m2 CLR
11:04 19.1 °C 6.2 °C 1009.4 hPa Calm     43 % 0.0 mm 193.0 W/m2 CLR
11:09 19.2 °C 6.7 °C 1009.4 hPa Calm     44 % 0.0 mm 311.0 W/m2 CLR
11:14 19.8 °C 7.6 °C 1009.4 hPa Calm     45 % 0.0 mm 724.0 W/m2 CLR
11:19 20.5 °C 7.2 °C 1009.4 hPa NNE 1.6 km/h 1.6 km/h 42 % 0.0 mm 582.0 W/m2 CLR
11:24 20.9 °C 7.9 °C 1009.0 hPa Calm     43 % 0.0 mm 512.0 W/m2 CLR
11:29 21.0 °C 7.9 °C 1009.0 hPa ENE 9.3 km/h 9.3 km/h 43 % 0.0 mm 424.0 W/m2 CLR
11:34 20.9 °C 8.5 °C 1009.0 hPa ENE 9.3 km/h 9.3 km/h 45 % 0.0 mm 374.0 W/m2 CLR
11:39 20.8 °C 9.1 °C 1009.0 hPa ENE 13.0 km/h 13.0 km/h 47 % 0.0 mm 693.0 W/m2 CLR
11:44 21.1 °C 9.3 °C 1009.0 hPa NE 14.8 km/h 14.8 km/h 47 % 0.0 mm 872.0 W/m2 CLR
11:49 21.2 °C 9.8 °C 1008.7 hPa ENE 13.0 km/h 13.0 km/h 48 % 0.0 mm 868.0 W/m2 CLR
11:54 21.2 °C 9.8 °C 1008.7 hPa ENE 11.1 km/h 11.1 km/h 48 % 0.0 mm 863.0 W/m2 CLR
11:59 21.2 °C 9.7 °C 1008.7 hPa East 13.0 km/h 13.0 km/h 48 % 0.0 mm 404.0 W/m2 CLR
12:04 21.2 °C 9.4 °C 1008.7 hPa NE 7.4 km/h 7.4 km/h 47 % 0.0 mm 360.0 W/m2 CLR
12:09 21.4 °C 10.0 °C 1008.7 hPa ENE 14.8 km/h 14.8 km/h 48 % 0.0 mm 865.0 W/m2 CLR
12:14 21.9 °C 10.1 °C 1008.4 hPa NE 11.1 km/h 11.1 km/h 47 % 0.0 mm 830.0 W/m2 CLR
12:19 22.4 °C 10.5 °C 1008.7 hPa NE 9.7 km/h 9.7 km/h 47 % 0.0 mm 870.0 W/m2 CLR
12:24 22.7 °C 10.8 °C 1008.4 hPa NE 16.7 km/h 16.7 km/h 47 % 0.0 mm 891.0 W/m2 CLR
12:29 22.6 °C 10.7 °C 1008.4 hPa ESE 11.1 km/h 11.1 km/h 47 % 0.0 mm 858.0 W/m2 CLR
12:34 22.5 °C 10.6 °C 1008.4 hPa NE 14.8 km/h 14.8 km/h 47 % 0.0 mm 846.0 W/m2 CLR
12:39 22.8 °C 10.9 °C 1008.4 hPa ENE 9.7 km/h 9.7 km/h 47 % 0.0 mm 861.0 W/m2 CLR
12:44 23.1 °C 10.8 °C 1008.0 hPa ENE 14.8 km/h 14.8 km/h 46 % 0.0 mm 909.0 W/m2 CLR
12:49 23.2 °C 10.6 °C 1008.0 hPa NE 6.4 km/h 6.4 km/h 45 % 0.0 mm 1014.0 W/m2 CLR
12:54 23.3 °C 10.7 °C 1007.7 hPa East 9.3 km/h 9.3 km/h 45 % 0.0 mm 374.0 W/m2 CLR
12:59 23.1 °C 10.1 °C 1007.7 hPa East 5.6 km/h 5.6 km/h 44 % 0.0 mm 341.0 W/m2 CLR
13:04 22.7 °C 10.2 °C 1007.7 hPa East 11.1 km/h 11.1 km/h 45 % 0.0 mm 243.0 W/m2 CLR
13:09 22.4 °C 10.6 °C 1007.7 hPa SE 9.3 km/h 9.3 km/h 47 % 0.0 mm 283.0 W/m2 CLR
13:14 22.3 °C 10.4 °C 1007.7 hPa ESE 13.0 km/h 13.0 km/h 47 % 0.0 mm 283.0 W/m2 CLR
13:19 22.6 °C 11.0 °C 1007.7 hPa East 13.0 km/h 13.0 km/h 48 % 0.0 mm 928.0 W/m2 CLR
13:24 22.8 °C 11.2 °C 1007.7 hPa ESE 11.1 km/h 11.1 km/h 48 % 0.0 mm 960.0 W/m2 CLR
13:29 22.9 °C 11.3 °C 1007.7 hPa ESE 14.8 km/h 14.8 km/h 48 % 0.0 mm 1039.0 W/m2 CLR
13:34 23.0 °C 11.1 °C 1007.3 hPa ENE 9.3 km/h 9.3 km/h 47 % 0.0 mm 1039.0 W/m2 CLR
13:39 23.1 °C 11.5 °C 1007.3 hPa ENE 11.1 km/h 11.1 km/h 48 % 0.0 mm 1039.0 W/m2 CLR
13:40 23.2 °C 11.2 °C 1007.3 hPa ENE 11.1 km/h 11.1 km/h 47 % 0.0 mm 1039.0 W/m2 CLR
13:45 23.2 °C 10.6 °C 1007.0 hPa SE 11.1 km/h 11.1 km/h 45 % 0.0 mm 563.0 W/m2 CLR
13:50 23.1 °C 10.8 °C 1007.0 hPa ESE 9.7 km/h 10.5 km/h 46 % 0.0 mm 366.0 W/m2 CLR
13:55 22.8 °C 11.2 °C 1007.0 hPa East 14.5 km/h 14.5 km/h 48 % 0.0 mm 209.0 W/m2 CLR
14:01 22.6 °C 11.1 °C 1007.0 hPa ENE 11.1 km/h 11.1 km/h 48 % 0.0 mm 134.0 W/m2 CLR
14:06 22.4 °C 10.8 °C 1007.3 hPa ENE 9.7 km/h 9.7 km/h 48 % 0.0 mm 44.0 W/m2 CLR
14:11 22.2 °C 12.2 °C 1007.7 hPa ENE 14.8 km/h 14.8 km/h 53 % 0.0 mm 47.0 W/m2 SCT
14:16 20.4 °C 13.6 °C 1008.0 hPa ENE 22.2 km/h 22.2 km/h 65 % 2.0 mm 127.0 W/m2 RA
14:21 18.5 °C 14.4 °C 1007.3 hPa ENE 11.3 km/h 11.3 km/h 77 % 4.1 mm 225.0 W/m2 RA
14:26 18.4 °C 15.4 °C 1007.3 hPa ENE 14.5 km/h 14.5 km/h 83 % 4.3 mm 967.0 W/m2 RA
14:31 18.8 °C 15.8 °C 1007.3 hPa ENE 13.0 km/h 13.0 km/h 83 % 4.3 mm 541.0 W/m2 CLR
14:36 19.1 °C 15.7 °C 1007.3 hPa ENE 7.4 km/h 7.4 km/h 81 % 4.3 mm 689.0 W/m2 CLR
14:41 19.3 °C 15.3 °C 1007.0 hPa ENE 18.5 km/h 18.5 km/h 78 % 4.3 mm 617.0 W/m2 CLR
14:46 19.5 °C 15.3 °C 1007.0 hPa ENE 18.5 km/h 18.5 km/h 77 % 4.3 mm 995.0 W/m2 CLR
14:51 19.7 °C 15.6 °C 1007.0 hPa NE 14.8 km/h 14.8 km/h 77 % 4.3 mm 858.0 W/m2 CLR
14:56 19.8 °C 15.1 °C 1006.7 hPa NE 7.4 km/h 7.4 km/h 74 % 4.3 mm 853.0 W/m2 CLR
15:01 19.8 °C 14.8 °C 1006.7 hPa NE 14.8 km/h 14.8 km/h 73 % 4.3 mm 837.0 W/m2 CLR
15:06 19.8 °C 15.0 °C 1006.7 hPa ENE 13.0 km/h 13.0 km/h 74 % 4.3 mm 846.0 W/m2 CLR
15:11 20.1 °C 15.6 °C 1006.7 hPa NE 9.3 km/h 9.3 km/h 75 % 4.3 mm 918.0 W/m2 CLR
15:16 20.4 °C 15.6 °C 1006.7 hPa ENE 9.3 km/h 9.3 km/h 74 % 2.0 mm 828.0 W/m2 CLR
15:21 20.4 °C 15.0 °C 1006.3 hPa East 7.4 km/h 7.4 km/h 71 % 0.3 mm 533.0 W/m2 CLR
15:26 20.3 °C 14.9 °C 1006.3 hPa ENE 8.0 km/h 8.0 km/h 71 % 0.0 mm 531.0 W/m2 CLR
15:31 20.4 °C 15.2 °C 1006.3 hPa Calm     72 % 0.0 mm 925.0 W/m2 CLR
15:36 20.6 °C 14.7 °C 1006.3 hPa NE 11.3 km/h 11.3 km/h 69 % 0.0 mm 269.0 W/m2 CLR
15:41 20.4 °C 14.3 °C 1006.3 hPa NE 13.0 km/h 13.0 km/h 68 % 0.0 mm 186.0 W/m2 CLR
15:46 20.2 °C 13.9 °C 1006.3 hPa NE 16.7 km/h 16.7 km/h 67 % 0.0 mm 116.0 W/m2 CLR
15:51 20.0 °C 13.7 °C 1006.7 hPa North 5.6 km/h 5.6 km/h 67 % 0.0 mm 77.0 W/m2 CLR
15:56 19.9 °C 14.1 °C 1006.7 hPa NNE 14.8 km/h 14.8 km/h 69 % 0.0 mm 91.0 W/m2 CLR
16:01 19.7 °C 14.3 °C 1007.0 hPa ENE 11.1 km/h 11.1 km/h 71 % 0.0 mm 146.0 W/m2 CLR
16:06 19.4 °C 14.9 °C 1006.7 hPa NE 11.3 km/h 11.3 km/h 75 % 0.5 mm 258.0 W/m2 RA
16:11 19.2 °C 15.2 °C 1006.3 hPa Calm     78 % 0.5 mm 237.0 W/m2 CLR
16:16 19.1 °C 15.3 °C 1006.0 hPa Calm     79 % 0.5 mm 248.0 W/m2 CLR
16:21 19.1 °C 15.3 °C 1006.0 hPa ENE 6.4 km/h 6.4 km/h 79 % 0.5 mm 722.0 W/m2 CLR
16:26 19.2 °C 14.9 °C 1005.6 hPa Calm     76 % 0.5 mm 575.0 W/m2 CLR
16:31 19.7 °C 15.9 °C 1006.0 hPa NE 1.9 km/h 1.9 km/h 79 % 0.5 mm 504.0 W/m2 CLR
16:36 19.9 °C 16.0 °C 1006.0 hPa Calm     78 % 0.5 mm 538.0 W/m2 CLR
16:41 20.3 °C 15.6 °C 1005.6 hPa SE 7.4 km/h 7.4 km/h 74 % 0.5 mm 703.0 W/m2 CLR
16:46 20.1 °C 14.6 °C 1005.6 hPa ESE 20.9 km/h 20.9 km/h 71 % 0.5 mm 659.0 W/m2 CLR
16:51 19.8 °C 14.4 °C 1005.6 hPa SE 18.5 km/h 18.5 km/h 71 % 0.5 mm 640.0 W/m2 CLR
16:56 19.8 °C 14.4 °C 1005.3 hPa SE 13.0 km/h 13.0 km/h 71 % 0.5 mm 622.0 W/m2 CLR
17:01 19.9 °C 14.3 °C 1005.3 hPa SE 18.5 km/h 18.5 km/h 70 % 0.5 mm 599.0 W/m2 CLR
17:06 20.1 °C 14.4 °C 1005.0 hPa SE 18.5 km/h 18.5 km/h 70 % 0.0 mm 243.0 W/m2 CLR
17:11 20.2 °C 14.7 °C 1005.0 hPa SSE 9.7 km/h 9.7 km/h 71 % 0.0 mm 582.0 W/m2 CLR
17:16 20.2 °C 14.5 °C 1005.0 hPa SE 16.7 km/h 16.7 km/h 70 % 0.0 mm 633.0 W/m2 CLR
17:21 20.1 °C 14.4 °C 1005.0 hPa SE 13.0 km/h 13.0 km/h 70 % 0.0 mm 475.0 W/m2 CLR
17:26 20.1 °C 14.4 °C 1005.0 hPa ESE 7.4 km/h 7.4 km/h 70 % 0.0 mm 236.0 W/m2 CLR
17:31 20.1 °C 14.0 °C 1004.6 hPa SE 16.7 km/h 16.7 km/h 68 % 0.0 mm 381.0 W/m2 CLR
17:36 20.1 °C 14.4 °C 1004.6 hPa ESE 14.5 km/h 14.5 km/h 70 % 0.0 mm 471.0 W/m2 CLR
17:41 20.2 °C 14.5 °C 1004.6 hPa SSE 14.8 km/h 14.8 km/h 70 % 0.0 mm 316.0 W/m2 CLR
17:46 19.9 °C 14.5 °C 1004.6 hPa South 22.2 km/h 22.2 km/h 71 % 0.0 mm 232.0 W/m2 CLR
17:51 19.6 °C 14.8 °C 1004.6 hPa South 14.8 km/h 14.8 km/h 74 % 0.0 mm 179.0 W/m2 CLR
17:56 19.4 °C 14.9 °C 1004.6 hPa South 13.0 km/h 13.0 km/h 75 % 0.0 mm 125.0 W/m2 CLR
18:01 19.3 °C 15.0 °C 1004.6 hPa South 11.1 km/h 11.1 km/h 76 % 0.0 mm 83.0 W/m2 CLR
18:06 19.3 °C 15.0 °C 1005.0 hPa South 9.3 km/h 9.3 km/h 76 % 0.0 mm 54.0 W/m2 FEW
18:11 19.2 °C 15.1 °C 1005.0 hPa South 11.1 km/h 11.1 km/h 77 % 0.0 mm 32.0 W/m2 SCT
18:16 19.1 °C 14.9 °C 1005.3 hPa ENE 9.3 km/h 9.3 km/h 77 % 0.0 mm 14.0 W/m2 BKN
18:21 18.8 °C 14.9 °C 1005.6 hPa ENE 8.0 km/h 8.0 km/h 78 % 0.3 mm 16.0 W/m2 RA
18:26 18.4 °C 15.3 °C 1006.0 hPa ENE 18.5 km/h 18.5 km/h 82 % 1.3 mm 88.0 W/m2 RA
18:31 18.0 °C 15.3 °C 1004.6 hPa ESE 8.0 km/h 8.0 km/h 84 % 2.8 mm 206.0 W/m2 RA
18:33 17.9 °C 15.3 °C 1004.6 hPa SE 7.4 km/h 7.4 km/h 85 % 3.0 mm 221.0 W/m2 RA
18:38 17.8 °C 15.7 °C 1004.6 hPa Calm     87 % 3.0 mm 418.0 W/m2 CLR
18:43 18.0 °C 16.0 °C 1004.6 hPa South 9.7 km/h 9.7 km/h 88 % 3.0 mm 336.0 W/m2 CLR
18:48 17.8 °C 15.3 °C 1004.6 hPa Calm     85 % 3.0 mm 204.0 W/m2 CLR
18:53 18.0 °C 15.4 °C 1004.6 hPa Calm     85 % 3.0 mm 294.0 W/m2 CLR
18:58 18.1 °C 15.4 °C 1004.6 hPa Calm     84 % 3.0 mm 334.0 W/m2 CLR
19:03 18.3 °C 15.5 °C 1004.6 hPa Calm     84 % 3.0 mm 330.0 W/m2 CLR
19:08 18.4 °C 15.5 °C 1004.6 hPa Calm     83 % 3.0 mm 248.0 W/m2 CLR
19:13 18.6 °C 15.6 °C 1004.6 hPa Calm     83 % 3.0 mm 185.0 W/m2 CLR
19:18 18.4 °C 15.5 °C 1004.6 hPa Calm     83 % 3.0 mm 86.0 W/m2 CLR
19:23 18.3 °C 15.8 °C 1004.6 hPa Calm     85 % 2.5 mm 79.0 W/m2 CLR
19:24 18.3 °C 15.7 °C 1004.6 hPa Calm     85 % 2.5 mm 72.0 W/m2 CLR
19:29 18.1 °C 15.7 °C 1004.6 hPa Calm     86 % 0.8 mm 70.0 W/m2 FEW
19:34 18.0 °C 15.8 °C 1004.6 hPa Calm     87 % 0.0 mm 100.0 W/m2 FEW
19:39 17.9 °C 15.7 °C 1004.6 hPa Calm     87 % 0.0 mm 95.0 W/m2 CLR
19:44 17.9 °C 15.7 °C 1005.0 hPa Calm     87 % 0.0 mm 90.0 W/m2 CLR
19:49 17.9 °C 15.7 °C 1005.0 hPa Calm     87 % 0.0 mm 84.0 W/m2 CLR
19:54 17.9 °C 15.9 °C 1005.0 hPa NE 6.4 km/h 6.4 km/h 88 % 0.0 mm 97.0 W/m2 CLR
19:59 17.9 °C 15.9 °C 1005.0 hPa NE 7.4 km/h 7.6 km/h 88 % 0.0 mm 79.0 W/m2 CLR
20:04 17.7 °C 15.7 °C 1005.0 hPa Calm     88 % 0.0 mm 42.0 W/m2 BKN
20:09 17.6 °C 15.6 °C 1005.3 hPa Calm     88 % 0.0 mm 47.0 W/m2 SCT
20:14 17.4 °C 15.4 °C 1005.0 hPa NE 11.1 km/h 11.1 km/h 88 % 0.0 mm 16.0 W/m2 BKN
20:19 17.2 °C 15.4 °C 1005.0 hPa NE 11.1 km/h 11.1 km/h 89 % 0.0 mm 12.0 W/m2 BKN
20:24 17.1 °C 15.3 °C 1005.3 hPa NE 5.6 km/h 5.6 km/h 89 % 0.0 mm 9.0 W/m2 BKN
20:29 17.0 °C 15.3 °C 1005.0 hPa NE 9.3 km/h 9.3 km/h 90 % 0.0 mm 7.0 W/m2 BKN
20:34 16.8 °C 15.1 °C 1005.3 hPa Calm     90 % 0.0 mm 5.0 W/m2 OVC
20:39 16.6 °C 14.9 °C 1005.3 hPa Calm     90 % 0.0 mm 0.0 W/m2 OVC
20:44 16.3 °C 14.4 °C 1005.3 hPa ENE 6.4 km/h 6.4 km/h 89 % 0.0 mm 0.0 W/m2 OVC
20:49 16.1 °C 14.2 °C 1005.3 hPa Calm     89 % 0.0 mm 0.0 W/m2 OVC
20:54 15.9 °C 14.1 °C 1005.3 hPa Calm     89 % 0.0 mm 0.0 W/m2 OVC
21:00 15.7 °C 13.9 °C 1005.3 hPa Calm     89 % 0.0 mm 0.0 W/m2 OVC
21:05 15.7 °C 14.1 °C 1005.3 hPa Calm     90 % 0.0 mm 0.0 W/m2 CLR
21:10 15.6 °C 13.9 °C 1005.6 hPa Calm     90 % 0.0 mm 0.0 W/m2 CLR
21:15 15.5 °C 13.9 °C 1005.6 hPa Calm     90 % 0.0 mm 0.0 W/m2 CLR
21:20 15.5 °C 13.9 °C 1006.0 hPa Calm     90 % 0.0 mm 0.0 W/m2 CLR
21:25 15.5 °C 13.9 °C 1006.0 hPa Calm     90 % 0.0 mm 0.0 W/m2 CLR
21:30 15.5 °C 13.9 °C 1006.3 hPa Calm     90 % 0.5 mm 0.0 W/m2 RA
21:35 15.6 °C 14.1 °C 1006.7 hPa Calm     91 % 0.5 mm 0.0 W/m2
21:40 15.6 °C 14.1 °C 1006.3 hPa Calm     91 % 0.8 mm 0.0 W/m2 RA
21:45 15.6 °C 14.2 °C 1006.7 hPa Calm     91 % 1.0 mm 0.0 W/m2 RA
21:50 15.6 °C 14.2 °C 1006.7 hPa Calm     91 % 1.0 mm 0.0 W/m2 CLR
21:55 15.5 °C 14.1 °C 1006.7 hPa Calm     91 % 1.0 mm 0.0 W/m2 CLR
22:00 15.4 °C 13.9 °C 1006.3 hPa Calm     91 % 1.0 mm 0.0 W/m2 CLR
22:05 15.4 °C 13.9 °C 1006.7 hPa Calm     91 % 1.0 mm 0.0 W/m2 CLR
22:10 15.4 °C 13.9 °C 1006.7 hPa Calm     91 % 1.3 mm 0.0 W/m2 RA
22:15 15.3 °C 13.8 °C 1006.7 hPa Calm     91 % 1.3 mm 0.0 W/m2 CLR
22:20 15.2 °C 13.8 °C 1006.7 hPa Calm     91 % 1.3 mm 0.0 W/m2 CLR
22:25 15.3 °C 14.0 °C 1006.3 hPa Calm     92 % 1.3 mm 0.0 W/m2 CLR
22:30 15.3 °C 13.8 °C 1006.0 hPa Calm     91 % 0.5 mm 0.0 W/m2 CLR
22:35 15.2 °C 13.8 °C 1006.0 hPa Calm     91 % 0.5 mm 0.0 W/m2 CLR
22:40 15.2 °C 13.8 °C 1005.6 hPa Calm     91 % 0.5 mm 0.0 W/m2 CLR
22:45 15.2 °C 13.8 °C 1006.3 hPa South 13.0 km/h 13.0 km/h 91 % 0.3 mm 0.0 W/m2 CLR
22:50 15.2 °C 13.8 °C 1006.3 hPa SW 6.4 km/h 6.4 km/h 91 % 0.3 mm 0.0 W/m2 CLR
22:55 15.2 °C 13.8 °C 1006.7 hPa WSW 6.4 km/h 6.4 km/h 91 % 0.3 mm 0.0 W/m2 CLR
23:00 15.3 °C 13.8 °C 1006.7 hPa WSW 14.8 km/h 14.8 km/h 91 % 0.3 mm 0.0 W/m2 CLR
23:05 15.3 °C 13.9 °C 1006.7 hPa WSW 3.7 km/h   91 % 0.3 mm 0.0 W/m2 CLR
23:10 15.3 °C 13.9 °C 1006.3 hPa WSW 13.0 km/h 13.0 km/h 91 % 0.0 mm 0.0 W/m2 CLR
23:15 15.4 °C 13.9 °C 1006.3 hPa SW 9.3 km/h 9.3 km/h 91 % 0.0 mm 0.0 W/m2 CLR
23:20 15.4 °C 14.0 °C 1006.7 hPa West 7.4 km/h 7.4 km/h 91 % 0.0 mm 0.0 W/m2 CLR
23:25 15.5 °C 14.1 °C 1006.7 hPa West 9.3 km/h 9.3 km/h 91 % 0.0 mm 0.0 W/m2 CLR
23:30 15.6 °C 14.1 °C 1006.7 hPa West 7.4 km/h 7.4 km/h 91 % 0.0 mm 0.0 W/m2 CLR
23:35 15.6 °C 13.9 °C 1006.7 hPa Calm     90 % 0.0 mm 0.0 W/m2 CLR
23:40 15.6 °C 13.9 °C 1006.7 hPa West 7.4 km/h 7.4 km/h 90 % 0.0 mm 0.0 W/m2 CLR
23:45 15.6 °C 14.0 °C 1006.3 hPa Calm     90 % 0.0 mm 0.0 W/m2 CLR
23:50 15.6 °C 13.9 °C 1006.3 hPa Calm     90 % 0.0 mm 0.0 W/m2 CLR
23:55 15.6 °C 14.1 °C 1006.3 hPa Calm     91 % 0.0 mm 0.0 W/m2 CLR
Lo Temps de Massalio
Compliments of Weather Underground - 1.25 mb